| time (UTC) | temp F | wind direction | speed MPH | gust MPH | rain 1hr in | rain 24hr in | rain mn in | humidity % | barometer mb |
| 20260906154450 | 87 | 52 | 4.0 | 9.0 | 0.00 | 0.00 | 0.00 | 66 | 1020.7 |
| 20260906153451 | 87 | 346 | 5.0 | 10.0 | 0.00 | 0.00 | 0.00 | 69 | 1020.6 |
| 20260906151456 | 87 | 24 | 6.0 | 11.0 | 0.00 | 0.00 | 0.00 | 68 | 1020.7 |
| 20260906150448 | 87 | 355 | 5.0 | 9.0 | 0.00 | 0.00 | 0.00 | 69 | 1020.6 |
| 20260906145455 | 87 | 321 | 6.0 | 10.0 | 0.00 | 0.00 | 0.00 | 69 | 1020.6 |
| 20260906144450 | 87 | 19 | 6.0 | 11.0 | 0.00 | 0.00 | 0.00 | 70 | 1020.6 |
| 20260906142450 | 88 | 5 | 7.0 | 12.0 | 0.00 | 0.00 | 0.00 | 69 | 1020.6 |
| 20260906141448 | 88 | 31 | 4.0 | 9.0 | 0.00 | 0.00 | 0.00 | 65 | 1020.6 |
| 20260906140453 | 88 | 9 | 4.0 | 9.0 | 0.00 | 0.00 | 0.00 | 63 | 1020.6 |
| 20260906135448 | 88 | 344 | 4.0 | 10.0 | 0.00 | 0.00 | 0.00 | 66 | 1020.6 |
| 20260906134448 | 88 | 58 | 6.0 | 10.0 | 0.00 | 0.00 | 0.00 | 64 | 1020.6 |
| 20260906132450 | 88 | 5 | 6.0 | 10.0 | 0.00 | 0.00 | 0.00 | 63 | 1020.5 |
| 20260906131443 | 89 | 53 | 6.0 | 11.0 | 0.00 | 0.00 | 0.00 | 62 | 1020.6 |
| 20260906130442 | 89 | 82 | 5.0 | 13.0 | 0.00 | 0.00 | 0.00 | 60 | 1020.6 |
| 20260906125442 | 89 | 35 | 6.0 | 11.0 | 0.00 | 0.00 | 0.00 | 58 | 1020.6 |
| 20260906124442 | 89 | 71 | 6.0 | 10.0 | 0.00 | 0.00 | 0.00 | 58 | 1020.6 |
| 20260906123443 | 89 | 71 | 6.0 | 11.0 | 0.00 | 0.00 | 0.00 | 58 | 1020.7 |
| 20260906121447 | 89 | 69 | 5.0 | 11.0 | 0.00 | 0.00 | 0.00 | 57 | 1020.6 |
| 20260906115445 | 90 | 42 | 4.0 | 9.0 | 0.00 | 0.00 | 0.00 | 54 | 1020.6 |
| 20260906114447 | 89 | 5 | 4.0 | 9.0 | 0.00 | 0.00 | 0.00 | 54 | 1020.6 |
| 20260906113441 | 89 | 76 | 5.0 | 11.0 | 0.00 | 0.00 | 0.00 | 56 | 1020.6 |
| 20260906111436 | 89 | 34 | 5.0 | 10.0 | 0.00 | 0.00 | 0.00 | 57 | 1020.7 |
| 20260906110435 | 88 | 52 | 7.0 | 12.0 | 0.00 | 0.00 | 0.00 | 57 | 1020.7 |
| 20260906105441 | 89 | 49 | 6.0 | 12.0 | 0.00 | 0.00 | 0.00 | 58 | 1020.7 |
| 20260906104438 | 89 | 34 | 7.0 | 12.0 | 0.00 | 0.00 | 0.00 | 57 | 1020.7 |
| 20260906103436 | 89 | 332 | 5.0 | 11.0 | 0.00 | 0.00 | 0.00 | 53 | 1020.8 |
| 20260906102437 | 89 | 14 | 4.0 | 9.0 | 0.00 | 0.00 | 0.00 | 54 | 1020.8 |
| 20260906101435 | 88 | 321 | 6.0 | 11.0 | 0.00 | 0.00 | 0.00 | 57 | 1020.9 |
| 20260906100433 | 88 | 351 | 5.0 | 10.0 | 0.00 | 0.00 | 0.00 | 57 | 1021.0 |
| 20260906095431 | 88 | 342 | 4.0 | 10.0 | 0.00 | 0.00 | 0.00 | 55 | 1021.0 |
| 20260906093432 | 88 | 355 | 4.0 | 8.0 | 0.00 | 0.00 | 0.00 | 59 | 1021.2 |
| 20260906092433 | 87 | 13 | 5.0 | 8.0 | 0.00 | 0.00 | 0.00 | 62 | 1021.2 |
| 20260906091432 | 86 | 351 | 5.0 | 10.0 | 0.00 | 0.00 | 0.00 | 64 | 1021.3 |
| 20260906090436 | 86 | 355 | 4.0 | 9.0 | 0.00 | 0.00 | 0.00 | 65 | 1021.5 |
| 20260906085434 | 86 | 355 | 4.0 | 8.0 | 0.00 | 0.00 | 0.00 | 66 | 1021.4 |
| 20260906084430 | 87 | 317 | 4.0 | 9.0 | 0.00 | 0.00 | 0.00 | 66 | 1021.4 |
| 20260906083429 | 88 | 320 | 3.0 | 5.0 | 0.00 | 0.00 | 0.00 | 65 | 1021.3 |
| 20260906082429 | 88 | 82 | 1.0 | 6.0 | 0.00 | 0.00 | 0.00 | 60 | 1021.3 |
| 20260906081429 | 87 | 5 | 2.0 | 3.0 | 0.00 | 0.00 | 0.00 | 62 | 1021.4 |
| 20260906080427 | 86 | 5 | 0.0 | 3.0 | 0.00 | 0.00 | 0.00 | 65 | 1021.3 |
| 20260906073427 | 85 | 83 | 2.0 | 4.0 | 0.00 | 0.00 | 0.00 | 69 | 1021.2 |
| 20260906072428 | 85 | 40 | 1.0 | 3.0 | 0.00 | 0.00 | 0.00 | 71 | 1021.2 |
| 20260906071428 | 85 | 40 | 2.0 | 4.0 | 0.00 | 0.00 | 0.00 | 71 | 1021.1 |
| 20260906070428 | 84 | 259 | 1.0 | 3.0 | 0.00 | 0.00 | 0.00 | 72 | 1021.0 |
| 20260906065426 | 83 | 238 | 1.0 | 4.0 | 0.00 | 0.00 | 0.00 | 73 | 1021.0 |
| 20260906064425 | 83 | 266 | 2.0 | 4.0 | 0.00 | 0.00 | 0.00 | 73 | 1020.9 |
| 20260906063426 | 82 | 239 | 2.0 | 3.0 | 0.00 | 0.00 | 0.00 | 71 | 1020.9 |
| 20260906061428 | 80 | 242 | 2.0 | 4.0 | 0.00 | 0.00 | 0.00 | 71 | 1020.9 |
| 20260906060425 | 80 | 215 | 1.0 | 3.0 | 0.00 | 0.00 | 0.00 | 71 | 1020.8 |
| 20260906055426 | 79 | 188 | 1.0 | 4.0 | 0.00 | 0.00 | 0.00 | 71 | 1020.8 |
| 20260906054425 | 78 | 203 | 2.0 | 5.0 | 0.00 | 0.00 | 0.00 | 71 | 1020.7 |
| 20260906053426 | 78 | 182 | 3.0 | 6.0 | 0.00 | 0.00 | 0.00 | 71 | 1020.7 |
| 20260906051426 | 76 | 204 | 4.0 | 5.0 | 0.00 | 0.00 | 0.00 | 70 | 1020.6 |
| 20260906050427 | 76 | 207 | 4.0 | 6.0 | 0.00 | 0.00 | 0.00 | 69 | 1020.6 |
| 20260906045424 | 76 | 191 | 4.0 | 6.0 | 0.00 | 0.00 | 0.00 | 70 | 1020.6 |
| 20260906043429 | 75 | 180 | 4.0 | 6.0 | 0.00 | 0.00 | 0.00 | 69 | 1020.4 |
| 20260906042425 | 76 | 193 | 4.0 | 7.0 | 0.00 | 0.00 | 0.00 | 69 | 1020.5 |
| 20260906041432 | 76 | 180 | 3.0 | 6.0 | 0.00 | 0.00 | 0.00 | 68 | 1020.5 |
| 20260906040426 | 76 | 198 | 4.0 | 6.0 | 0.00 | 0.00 | 0.00 | 67 | 1020.3 |
| 20260906035427 | 76 | 221 | 4.0 | 5.0 | 0.00 | 0.00 | 0.00 | 67 | 1020.3 |
| 20260906034423 | 76 | 200 | 3.0 | 5.0 | 0.00 | 0.00 | 0.00 | 66 | 1020.2 |
| 20260906030426 | 76 | 194 | 4.0 | 6.0 | 0.00 | 0.00 | 0.00 | 63 | 1020.1 |
| 20260906025423 | 76 | 171 | 4.0 | 6.0 | 0.00 | 0.00 | 0.00 | 63 | 1020.1 |
| 20260906024423 | 76 | 194 | 4.0 | 6.0 | 0.00 | 0.00 | 0.00 | 62 | 1020.2 |
| 20260906023421 | 76 | 185 | 4.0 | 7.0 | 0.00 | 0.00 | 0.00 | 62 | 1020.3 |
| 20260906022423 | 76 | 188 | 3.0 | 5.0 | 0.00 | 0.00 | 0.00 | 62 | 1020.3 |
| 20260906021422 | 76 | 200 | 3.0 | 6.0 | 0.00 | 0.00 | 0.00 | 62 | 1020.3 |
| 20260906020421 | 76 | 177 | 3.0 | 5.0 | 0.00 | 0.00 | 0.00 | 61 | 1020.3 |
| 20260906014412 | 77 | 229 | 2.0 | 4.0 | 0.00 | 0.00 | 0.00 | 63 | 1020.3 |
| 20260906013415 | 77 | 205 | 2.0 | 4.0 | 0.00 | 0.00 | 0.00 | 63 | 1020.2 |
| 20260906012417 | 77 | 160 | 1.0 | 4.0 | 0.00 | 0.00 | 0.00 | 64 | 1020.2 |
| 20260906011421 | 77 | 189 | 2.0 | 5.0 | 0.00 | 0.00 | 0.00 | 65 | 1020.2 |
| 20260906010415 | 77 | 215 | 3.0 | 6.0 | 0.00 | 0.00 | 0.00 | 66 | 1020.2 |
| 20260906004408 | 77 | 204 | 4.0 | 6.0 | 0.00 | 0.00 | 0.00 | 67 | 1020.2 |
| 20260906003408 | 78 | 200 | 4.0 | 6.0 | 0.00 | 0.00 | 0.00 | 67 | 1020.3 |
| 20260906002408 | 78 | 220 | 5.0 | 7.0 | 0.00 | 0.00 | 0.00 | 67 | 1020.3 |
| 20260906001408 | 78 | 229 | 5.0 | 8.0 | 0.00 | 0.00 | 0.00 | 70 | 1020.3 |
| 20260906000411 | 78 | 220 | 6.0 | 8.0 | 0.00 | 0.00 | 0.00 | 69 | 1020.3 |
| 20260905235409 | 78 | 208 | 6.0 | 9.0 | 0.00 | 0.00 | 0.00 | 68 | 1020.5 |
| 20260905234406 | 78 | 221 | 4.0 | 8.0 | 0.00 | 0.00 | 0.00 | 70 | 1020.7 |
| 20260905232413 | 78 | 214 | 2.0 | 4.0 | 0.00 | 0.00 | 0.00 | 76 | 1020.8 |
| 20260905230406 | 78 | 213 | 2.0 | 6.0 | 0.00 | 0.00 | 0.00 | 75 | 1020.7 |
| 20260905224406 | 79 | 205 | 2.0 | 5.0 | 0.00 | 0.00 | 0.00 | 76 | 1020.6 |
| 20260905223406 | 79 | 216 | 3.0 | 6.0 | 0.00 | 0.00 | 0.00 | 76 | 1020.7 |
| 20260905222406 | 79 | 214 | 3.0 | 6.0 | 0.00 | 0.00 | 0.00 | 75 | 1020.7 |
| 20260905221414 | 79 | 207 | 4.0 | 6.0 | 0.00 | 0.00 | 0.00 | 75 | 1020.8 |
| 20260905220406 | 79 | 209 | 4.0 | 7.0 | 0.00 | 0.00 | 0.00 | 75 | 1020.7 |
| 20260905215359 | 79 | 231 | 3.0 | 6.0 | 0.00 | 0.00 | 0.00 | 76 | 1020.7 |
| 20260905214359 | 79 | 225 | 3.0 | 5.0 | 0.00 | 0.00 | 0.00 | 76 | 1020.7 |
| 20260905213359 | 79 | 212 | 3.0 | 5.0 | 0.00 | 0.00 | 0.00 | 77 | 1020.8 |
| 20260905212358 | 79 | 225 | 3.0 | 4.0 | 0.00 | 0.00 | 0.00 | 78 | 1020.7 |
| 20260905211357 | 79 | 198 | 2.0 | 5.0 | 0.00 | 0.00 | 0.00 | 78 | 1020.7 |
| 20260905210357 | 79 | 198 | 3.0 | 5.0 | 0.00 | 0.00 | 0.00 | 77 | 1020.8 |
| 20260905205357 | 80 | 182 | 2.0 | 5.0 | 0.00 | 0.00 | 0.00 | 76 | 1020.8 |
| 20260905204357 | 80 | 184 | 2.0 | 4.0 | 0.00 | 0.00 | 0.00 | 76 | 1020.8 |
| 20260905203359 | 80 | 179 | 3.0 | 5.0 | 0.00 | 0.00 | 0.00 | 76 | 1020.8 |
| 20260905201351 | 80 | 200 | 3.0 | 5.0 | 0.00 | 0.00 | 0.00 | 75 | 1020.9 |
| 20260905200351 | 80 | 193 | 3.0 | 6.0 | 0.00 | 0.00 | 0.00 | 75 | 1020.8 |
| 20260905195351 | 80 | 202 | 3.0 | 5.0 | 0.00 | 0.00 | 0.00 | 75 | 1020.9 |
| 20260905194351 | 81 | 204 | 3.0 | 5.0 | 0.00 | 0.00 | 0.00 | 74 | 1020.9 |
| 20260905193355 | 81 | 207 | 2.0 | 5.0 | 0.00 | 0.00 | 0.00 | 73 | 1020.9 |
| 20260905192355 | 81 | 194 | 3.0 | 4.0 | 0.00 | 0.00 | 0.00 | 74 | 1020.8 |
| 20260905191351 | 81 | 199 | 3.0 | 5.0 | 0.00 | 0.00 | 0.00 | 73 | 1020.7 |
| 20260905190350 | 82 | 178 | 2.0 | 4.0 | 0.00 | 0.00 | 0.00 | 74 | 1020.6 |
| 20260905185356 | 82 | 204 | 1.0 | 4.0 | 0.00 | 0.00 | 0.00 | 73 | 1020.5 |
| 20260905184351 | 83 | 336 | 0.0 | 2.0 | 0.00 | 0.00 | 0.00 | 73 | 1020.3 |
| 20260905182350 | 83 | 336 | 1.0 | 3.0 | 0.00 | 0.00 | 0.00 | 74 | 1020.2 |
| 20260905181354 | 84 | 336 | 0.0 | 0.0 | 0.00 | 0.00 | 0.00 | 73 | 1020.2 |
| 20260905180350 | 84 | 336 | 0.0 | 0.0 | 0.00 | 0.00 | 0.00 | 73 | 1020.0 |
| 20260905175350 | 84 | 336 | 0.0 | 3.0 | 0.00 | 0.00 | 0.00 | 72 | 1019.9 |
| 20260905174351 | 84 | 336 | 1.0 | 3.0 | 0.00 | 0.00 | 0.00 | 72 | 1019.8 |
| 20260905173350 | 84 | 336 | 2.0 | 3.0 | 0.00 | 0.00 | 0.00 | 72 | 1019.8 |
| 20260905172357 | 85 | 336 | 2.0 | 4.0 | 0.00 | 0.00 | 0.00 | 71 | 1019.8 |
| 20260905171350 | 85 | 336 | 3.0 | 5.0 | 0.00 | 0.00 | 0.00 | 71 | 1019.8 |
| 20260905170351 | 85 | 351 | 3.0 | 5.0 | 0.00 | 0.00 | 0.00 | 69 | 1019.7 |
| 20260905164350 | 86 | 344 | 4.0 | 6.0 | 0.00 | 0.00 | 0.00 | 67 | 1019.6 |
| 20260905163351 | 86 | 345 | 4.0 | 8.0 | 0.00 | 0.00 | 0.00 | 66 | 1019.7 |
| 20260905162357 | 86 | 346 | 5.0 | 8.0 | 0.00 | 0.00 | 0.00 | 66 | 1019.7 |
| 20260905160353 | 87 | 15 | 5.0 | 10.0 | 0.00 | 0.00 | 0.00 | 65 | 1019.9 |
| 20260905155347 | 87 | 355 | 6.0 | 10.0 | 0.00 | 0.00 | 0.00 | 66 | 1019.8 |